Flag for Egypt Weather past 2 weeks in Port Said, Egypt

Now
90 °F

Sunny.


Feels Like: 96 °F
Forecast: 79 / 86 °F
Wind: 10 mph from North

Location: Port Said Airport

Current Time: Sep 17, 2014 at 12:35:07 PM

Latest Report: Sep 17, 2014 at 12:00 PM


Visibility: 10 mi

Pressure: 29.77 "Hg

Humidity: 55%

Dew point: 72 °F

Location of Port SaidLocation

Historic Weather in Port Said — Graph

°F

Port Said temperature yesterday

Maximum temperature yesterday: 84 °F (at 11:00 AM)
Minimum temperature yesterday: 77 °F (at 7:00 AM)
Average temperature yesterday: 81 °F

Past Weeks' High & Low Weather Summary

 TemperatureHumidityPressure
High90 °F (Sep 4, 2:00 PM)94% (Sep 12, 4:00 AM)29.98 "Hg (Sep 12, 4:00 AM)
Low77 °F (Sep 7, 6:00 AM)45% (Sep 11, 9:00 AM)29.71 "Hg (Sep 3, 5:00 AM)
Average82 °F70%29.86 "Hg
* Reported Sep 2 11:00 AM — Sep 17 11:00 AM, Port Said, Weather by CustomWeather, © 2014

Note: Actual official high and low records may vary slightly from our data, if they occured in-between our weather recording intervals... More about our weather records

Advertising

Port Said weather history for previous 24 hours

 ConditionsComfort  
Time TempWeatherWind HumidityBarometerVisibility
11:00 AM
Sep 17
86 °FSunny.13 mph66%29.77 "Hg10 mi
10:00 AM86 °FSunny.14 mph66%29.77 "Hg10 mi
9:00 AM84 °FSunny.16 mph66%29.77 "Hg10 mi
8:00 AM81 °FSunny.14 mph74%29.77 "Hg10 mi
7:00 AM79 °FSunny.15 mph74%29.77 "Hg10 mi
6:00 AM79 °FClear.14 mph79%29.77 "Hg10 mi
5:00 AM79 °FClear.12 mph79%29.74 "Hg10 mi
4:00 AM81 °FClear.14 mph74%29.74 "Hg10 mi
3:00 AM81 °FClear.12 mph79%29.77 "Hg10 mi
2:00 AM81 °FClear.14 mph79%29.77 "Hg10 mi
1:00 AM81 °FClear.N/A79%29.77 "Hg10 mi
12:00 AM81 °FClear.15 mph79%29.80 "Hg10 mi
11:00 PM
Sep 16
82 °FClear.15 mph74%29.80 "Hg10 mi
10:00 PM82 °FClear.16 mph74%29.80 "Hg10 mi
9:00 PM82 °FClear.14 mph74%29.80 "Hg10 mi
8:00 PM82 °FClear.15 mph74%29.80 "Hg10 mi
7:00 PM84 °FClear.13 mph66%29.83 "Hg10 mi
6:00 PM84 °FSunny.10 mph70%29.83 "Hg10 mi
5:00 PM84 °FSunny.9 mph70%29.83 "Hg10 mi
4:00 PM84 °FSunny.8 mph66%29.83 "Hg10 mi
3:00 PM84 °FSunny.7 mph70%29.83 "Hg10 mi
2:00 PM84 °FSunny.7 mph70%29.86 "Hg10 mi
1:00 PM82 °FSunny.5 mph70%29.86 "Hg10 mi
12:00 PM82 °FSunny.5 mph70%29.86 "Hg10 mi
Weather by CustomWeather, © 2014

See weather overviewHow to use our weather pages